PAL453 RPLL-RPMR

Flight info

Callsign PAL453
Flight time N/A
Altitude 39000
Route VERDE2R VERDE A461 SAJ W3 IOO B472 COT W19 MELBY MELBY3P
Aircraft A339/H-SADE1E2E3GHIJ3J5M1P2RWXY/LB2D1

Departure

Time N/A
Airport Ninoy Aquino International Airport (RPLL)

Arrival

Time 2026-04-25 05:40
Airport General Santos International Airport (RPMR)
Time Latitude Longitude Altitude Speed Heading
2026-04-25 05:15 6.30757 124.94017 10064 ft 316 kts 127°
2026-04-25 05:16 6.29498 124.95592 10040 ft 306 kts 130°
2026-04-25 05:16 6.28285 124.97041 10009 ft 296 kts 130°
2026-04-25 05:16 6.27041 124.98517 9762 ft 296 kts 130°
2026-04-25 05:16 6.25797 124.99991 9487 ft 295 kts 130°
2026-04-25 05:17 6.24586 125.01428 9231 ft 294 kts 130°
2026-04-25 05:17 6.23385 125.02854 8983 ft 293 kts 130°
2026-04-25 05:17 6.22159 125.04314 8732 ft 292 kts 130°
2026-04-25 05:17 6.20949 125.05753 8484 ft 290 kts 130°
2026-04-25 05:18 6.19748 125.07183 8237 ft 289 kts 129°
2026-04-25 05:18 6.18558 125.08600 7991 ft 288 kts 129°
2026-04-25 05:18 6.17349 125.10040 7742 ft 287 kts 129°
2026-04-25 05:18 6.16154 125.11462 7494 ft 286 kts 129°
2026-04-25 05:19 6.14957 125.12885 7246 ft 285 kts 129°
2026-04-25 05:19 6.13769 125.14299 6999 ft 284 kts 129°
2026-04-25 05:19 6.12587 125.15705 6752 ft 283 kts 129°
2026-04-25 05:19 6.11412 125.17088 6505 ft 282 kts 133°
2026-04-25 05:20 6.09962 125.18185 6234 ft 282 kts 155°
2026-04-25 05:20 6.08217 125.18675 5990 ft 281 kts 171°
2026-04-25 05:20 6.06406 125.18906 5748 ft 281 kts 174°
2026-04-25 05:20 6.04598 125.19096 5505 ft 280 kts 174°
2026-04-25 05:21 6.02779 125.19289 5270 ft 279 kts 173°
2026-04-25 05:21 6.00994 125.19490 5116 ft 275 kts 173°
2026-04-25 05:21 5.99235 125.19697 4957 ft 272 kts 173°
2026-04-25 05:21 5.97485 125.19907 4801 ft 268 kts 173°
2026-04-25 05:22 5.95775 125.20115 4651 ft 265 kts 173°
2026-04-25 05:22 5.94082 125.20322 4479 ft 261 kts 173°
2026-04-25 05:22 5.92412 125.20525 4278 ft 258 kts 172°
2026-04-25 05:22 5.90769 125.20588 4071 ft 255 kts 190°
2026-04-25 05:23 5.89344 125.20031 3877 ft 251 kts 217°
2026-04-25 05:23 5.88273 125.18851 3687 ft 245 kts 244°
2026-04-25 05:23 5.87817 125.17361 3525 ft 238 kts 263°
2026-04-25 05:23 5.87636 125.15851 3369 ft 234 kts 266°
2026-04-25 05:24 5.87495 125.14365 3252 ft 228 kts 266°
2026-04-25 05:24 5.87615 125.12934 3167 ft 217 kts 297°
2026-04-25 05:24 5.88466 125.11901 3135 ft 200 kts 331°
2026-04-25 05:24 5.89627 125.11517 3124 ft 184 kts 352°
2026-04-25 05:25 5.90771 125.11380 3091 ft 172 kts 355°
2026-04-25 05:25 5.91785 125.11284 3051 ft 172 kts 356°
2026-04-25 05:25 5.92419 125.11223 3028 ft 169 kts 355°
2026-04-25 05:25 5.93291 125.11133 2861 ft 165 kts 355°
2026-04-25 05:26 5.94225 125.11031 2656 ft 162 kts 355°
2026-04-25 05:26 5.95135 125.10925 2497 ft 157 kts 355°
2026-04-25 05:26 5.96015 125.10818 2418 ft 152 kts 354°
2026-04-25 05:26 5.96903 125.10702 2423 ft 154 kts 354°
2026-04-25 05:27 5.97815 125.10591 2669 ft 165 kts 355°
2026-04-25 05:27 5.98546 125.10506 3073 ft 160 kts 355°
2026-04-25 05:27 5.99320 125.10416 3423 ft 153 kts 354°
2026-04-25 05:27 6.00224 125.10310 3433 ft 167 kts 354°
2026-04-25 05:28 6.00875 125.10236 3500 ft 172 kts 359°
2026-04-25 05:28 6.01846 125.10438 3430 ft 177 kts 34°
2026-04-25 05:28 6.02364 125.11002 3195 ft 186 kts 64°
2026-04-25 05:28 6.02544 125.12000 3039 ft 217 kts 95°
2026-04-25 05:29 6.02405 125.12726 3024 ft 226 kts 102°
2026-04-25 05:29 6.02027 125.14025 3031 ft 230 kts 105°
2026-04-25 05:29 6.01642 125.15259 3022 ft 231 kts 105°
2026-04-25 05:29 6.01225 125.16396 3015 ft 232 kts 115°
2026-04-25 05:30 6.00505 125.17524 3015 ft 233 kts 127°
2026-04-25 05:30 5.99575 125.18537 3014 ft 235 kts 136°
2026-04-25 05:30 5.98550 125.19369 3014 ft 235 kts 143°
2026-04-25 05:30 5.97532 125.20025 3013 ft 236 kts 152°
2026-04-25 05:31 5.96222 125.20450 3011 ft 238 kts 169°
2026-04-25 05:31 5.94819 125.20622 3009 ft 232 kts 174°
2026-04-25 05:31 5.93440 125.20734 3003 ft 222 kts 174°
2026-04-25 05:31 5.92136 125.20847 2997 ft 212 kts 173°
2026-04-25 05:32 5.90896 125.20907 2992 ft 202 kts 187°
2026-04-25 05:32 5.89769 125.20571 2998 ft 189 kts 208°
2026-04-25 05:32 5.89001 125.20036 2958 ft 185 kts 224°
2026-04-25 05:32 5.88423 125.19352 2893 ft 184 kts 239°
2026-04-25 05:33 5.88003 125.18439 2870 ft 182 kts 256°
2026-04-25 05:33 5.87823 125.17505 2865 ft 181 kts 264°
2026-04-25 05:33 5.87738 125.16727 2862 ft 181 kts 266°
2026-04-25 05:33 5.87667 125.15951 2858 ft 181 kts 267°
2026-04-25 05:34 5.87597 125.15173 2856 ft 181 kts 266°
2026-04-25 05:34 5.87522 125.14394 2855 ft 181 kts 266°
2026-04-25 05:34 5.87496 125.13560 2854 ft 180 kts 280°
2026-04-25 05:34 5.87700 125.12818 2812 ft 178 kts 301°
2026-04-25 05:35 5.88232 125.12193 2752 ft 173 kts 327°
2026-04-25 05:35 5.89131 125.11764 2737 ft 172 kts 345°
2026-04-25 05:35 5.90088 125.11543 2691 ft 168 kts 352°
2026-04-25 05:35 5.91072 125.11403 2494 ft 168 kts 354°
2026-04-25 05:36 5.92052 125.11292 2420 ft 168 kts 355°
2026-04-25 05:36 5.93041 125.11182 2423 ft 170 kts 355°
2026-04-25 05:36 5.94026 125.11068 2418 ft 170 kts 354°
2026-04-25 05:36 5.95024 125.10947 2415 ft 171 kts 354°
2026-04-25 05:37 5.96017 125.10825 2321 ft 167 kts 354°
2026-04-25 05:37 5.96779 125.10730 2138 ft 165 kts 354°
2026-04-25 05:37 5.97382 125.10655 1997 ft 162 kts 354°
2026-04-25 05:37 5.98254 125.10548 1820 ft 156 kts 354°
2026-04-25 05:38 5.99126 125.10440 1634 ft 150 kts 354°
2026-04-25 05:38 5.99986 125.10335 1461 ft 146 kts 355°
2026-04-25 05:38 6.00846 125.10229 1282 ft 146 kts 355°
2026-04-25 05:38 6.01701 125.10124 1083 ft 146 kts 355°
2026-04-25 05:39 6.02541 125.10020 894 ft 145 kts 354°
2026-04-25 05:39 6.03383 125.09913 734 ft 145 kts 354°
2026-04-25 05:39 6.04230 125.09810 571 ft 144 kts 355°
2026-04-25 05:39 6.05043 125.09718 503 ft 130 kts 354°
2026-04-25 05:40 6.05687 125.09638 502 ft 88 kts 352°
2026-04-25 05:40 6.06071 125.09590 502 ft 48 kts 353°
2026-04-25 05:40 6.06263 125.09565 501 ft 23 kts 353°
2026-04-25 05:40 6.06386 125.09552 501 ft 22 kts 354°
2026-04-25 05:41 6.06499 125.09537 502 ft 21 kts 351°
2026-04-25 05:41 6.06625 125.09520 501 ft 21 kts 353°
2026-04-25 05:41 6.06733 125.09508 501 ft 21 kts 353°
2026-04-25 05:41 6.06853 125.09495 502 ft 20 kts 355°
2026-04-25 05:42 6.06973 125.09481 501 ft 20 kts 352°
2026-04-25 05:42 6.07066 125.09467 501 ft 11 kts 352°
2026-04-25 05:42 6.07118 125.09471 502 ft 9 kts 34°
2026-04-25 05:42 6.07136 125.09515 501 ft 9 kts 77°
2026-04-25 05:43 6.07144 125.09571 501 ft 10 kts 83°
2026-04-25 05:43 6.07157 125.09610 501 ft 7 kts 48°
2026-04-25 05:43 6.07190 125.09615 501 ft 6 kts 348°
2026-04-25 05:43 6.07226 125.09611 501 ft 7 kts 353°
2026-04-25 05:44 6.07245 125.09598 501 ft 5 kts 298°
2026-04-25 05:44 6.07254 125.09566 501 ft 6 kts 275°
2026-04-25 05:44 6.07253 125.09516 501 ft 12 kts 263°
2026-04-25 05:44 6.07238 125.09463 501 ft 11 kts 234°
2026-04-25 05:45 6.07191 125.09448 501 ft 11 kts 175°
2026-04-25 05:45 6.07130 125.09455 502 ft 14 kts 172°
2026-04-25 05:45 6.07043 125.09467 501 ft 18 kts 172°
2026-04-25 05:45 6.06929 125.09483 502 ft 21 kts 172°
2026-04-25 05:46 6.06796 125.09500 501 ft 23 kts 173°
2026-04-25 05:46 6.06652 125.09518 501 ft 25 kts 173°
2026-04-25 05:46 6.06501 125.09536 502 ft 26 kts 172°
2026-04-25 05:46 6.06354 125.09554 501 ft 17 kts 173°
2026-04-25 05:47 6.06285 125.09563 501 ft 10 kts 173°
2026-04-25 05:47 6.06252 125.09573 501 ft 3 kts 131°
2026-04-25 05:47 6.06247 125.09601 501 ft 6 kts 93°
2026-04-25 05:47 6.06248 125.09641 501 ft 11 kts 85°
2026-04-25 05:48 6.06256 125.09696 501 ft 12 kts 81°
2026-04-25 05:48 6.06266 125.09763 501 ft 9 kts 82°
2026-04-25 05:48 6.06266 125.09788 501 ft 4 kts 109°
2026-04-25 05:48 6.06253 125.09807 501 ft 7 kts 136°
2026-04-25 05:49 6.06206 125.09824 501 ft 11 kts 172°
2026-04-25 05:49 6.06163 125.09829 501 ft 12 kts 173°
2026-04-25 05:49 6.06090 125.09838 501 ft 13 kts 173°
2026-04-25 05:49 6.06014 125.09848 501 ft 13 kts 174°
2026-04-25 05:50 6.05941 125.09856 501 ft 14 kts 173°
2026-04-25 05:50 6.05890 125.09862 501 ft 14 kts 173°
2026-04-25 05:50 6.05822 125.09869 501 ft 9 kts 173°
2026-04-25 05:50 6.05791 125.09887 501 ft 8 kts 123°
2026-04-25 05:51 6.05783 125.09924 501 ft 3 kts 91°
2026-04-25 05:51 6.05783 125.09945 501 ft 2 kts 84°
2026-04-25 05:51 6.05784 125.09950 501 ft 0 kts 84°